Weather History for Curitiba, Brazil

Change the Weather History Date:

Thursday, August 29, 2013

  Actual Average Record
Temperature  
Mean Temperature 52 °F -  
Max Temperature 72 °F 68 °F 86 °F (1999)
Min Temperature 32 °F 50 °F 32 °F (2013)
Degree Days  
Heating Degree Days 13    
Growing Degree Days 2 (Base 50)    
Moisture  
Dew Point 38 °F    
Average Humidity 75    
Maximum Humidity 100    
Minimum Humidity 7    
Precipitation  
Precipitation 0.00 in - - ()
Sea Level Pressure  
Sea Level Pressure 30.30 in    
Wind  
Wind Speed 2 mph ()    
Max Wind Speed 12 mph    
Max Gust Speed -    
Visibility 4.9 miles    
Events Fog    
Averages and records for this station are not official NWS values.
T = Trace of Precipitation, MM = Missing Value Source: Averaged Metar Reports

Daily Weather History Graph

Daily Weather History Graph

Search for Another Location

Airport:

Trip Planner

Search our weather history database for the weather conditions in past years. The results will help you decide how hot, cold, wet, or windy it might be!

Date:

Astronomy

Aug. 29, 2013 Rise Set
Actual Time 6:31 AM BRT 6:03 PM BRT
Civil Twilight 6:08 AM BRT 6:26 PM BRT
Nautical Twilight 5:41 AM BRT 6:53 PM BRT
Astronomical Twilight 5:15 AM BRT 7:20 PM BRT
Moon 1:20 AM BRT (8/29) 12:22 PM BRT (8/29)
Length of Visible Light 12h 18m
Length of Day
11h 32m
Last Quarter, 38% of the Moon is Illuminated
Aug 29
Last Quarter
Sep 5
New
Sep 12
First Quarter
Sep 19
Full
Sep 27
Last Quarter

Hourly Weather History & Observations

Time (BRT) Temp. Windchill Dew Point Humidity Pressure Visibility Wind Dir Wind Speed Gust Speed Precip Events Conditions
12:00 AM 39.2 °F - 39.2 °F 100% 30.33 in 6.2 mi Calm Calm - N/A   Partly Cloudy
1:00 AM 37.4 °F 34.9 °F 37.4 °F 100% 30.33 in 6.2 mi East 3.5 mph - N/A   Partly Cloudy
2:00 AM 35.6 °F - 35.6 °F 100% 30.30 in 6.2 mi East 2.3 mph - N/A   Partly Cloudy
3:00 AM 34 °F - 34 °F 100%  in 12 mi ESE 2.3 mph - -  
3:00 AM 33.8 °F - 33.8 °F 100% 30.30 in - ESE 2.3 mph - N/A   Clear
4:00 AM 35.6 °F - 35.6 °F 100% 30.30 in - Calm Calm - N/A   Clear
5:00 AM 35.6 °F - 35.6 °F 100% 30.30 in 1.9 mi Calm Calm - N/A   Scattered Clouds
5:48 AM 33.8 °F - 33.8 °F 100% - 0.5 mi NW 2.3 mph - N/A Fog Fog
6:00 AM 32.0 °F 28.7 °F 32.0 °F 100% - 0.4 mi ENE 3.5 mph - N/A Fog Fog
6:13 AM - - - N/A% 30.30 in 0.3 mi East 3.5 mph - N/A Fog Fog
7:00 AM 32.0 °F 28.7 °F 32.0 °F 100% 30.33 in 1.9 mi ENE 3.5 mph - N/A   Partly Cloudy
8:00 AM 41.0 °F - 41.0 °F 100% 30.36 in 1.9 mi Calm Calm - N/A   Partly Cloudy
9:00 AM 47 °F - 46 °F 94%  in 3 mi Calm Calm - -   Mist
9:00 AM 46.4 °F - 46.4 °F 100% 30.36 in 3.1 mi Calm Calm - N/A   Partly Cloudy
10:00 AM 53.6 °F - 41.0 °F 62% 30.36 in 5.6 mi ENE 2.3 mph - N/A   Partly Cloudy
11:00 AM 59.0 °F - 41.0 °F 51% 30.36 in - North 3.5 mph - N/A   Clear
12:00 PM 62.6 °F - 37.4 °F 39% 30.33 in - NNW 3.5 mph - N/A   Clear
1:00 PM 68.0 °F - 32.0 °F 26% 30.30 in - East 5.8 mph - N/A   Clear
2:00 PM 69.8 °F - 32.0 °F 25% 30.27 in - NW 5.8 mph - N/A   Clear
3:00 PM 73 °F - 23 °F 7%  in 12 mi NNW 3.5 mph - -  
3:00 PM 73.4 °F - 23.0 °F 15% 30.24 in - NNW 3.5 mph - N/A   Clear
4:00 PM 68.0 °F - 41.0 °F 37% 30.24 in - SE 11.5 mph - N/A   Clear
5:00 PM 64.4 °F - 42.8 °F 45% 30.24 in - ESE 8.1 mph - N/A   Clear
6:00 PM 57.2 °F - 46.4 °F 67% 30.24 in - East 8.1 mph - N/A   Clear
7:00 PM 53.6 °F - 44.6 °F 72% 30.27 in - ESE 4.6 mph - N/A   Clear
8:00 PM 50.0 °F - 44.6 °F 82% 30.27 in - ESE 3.5 mph - N/A   Clear
9:00 PM 47 °F - 44 °F 87%  in 12 mi ESE 3.5 mph - -  
9:00 PM 48.2 °F - 44.6 °F 87% 30.30 in - ESE 3.5 mph - N/A   Clear
10:00 PM 46.4 °F - 44.6 °F 93% 30.30 in - East 2.3 mph - N/A   Clear
11:00 PM 44.6 °F 43.1 °F 42.8 °F 93% 30.30 in - East 3.5 mph - N/A   Clear